Location: Unspecified
(54.1780°N, 0.0000°E)
Time: 17:13:36
(UTC+00:00)

Transit 2A - Pass Details

Date: 26 June 2019
Orbit: 594 x 965 km, 66.7° (Epoch: 16 July)

Event Time Altitude Azimuth Distance (km) Brightness Sun altitude
Rises 21:37:33 0° 155° (SSE) 3,637 - -6.4°
Exits shadow 21:40:23 - 140° (SE) 2,906 8.3 -6.6°
Reaches altitude 10° 21:41:25 10° 132° (SE) 2,699 8.2 -6.7°
Maximum altitude 21:44:33 14° 102° (ESE) 2,393 8.2 -7.0°
Drops below altitude 10° 21:47:39 10° 73° (ENE) 2,670 8.7 -7.2°
Sets 21:51:25 0° 50° (NE) 3,573 9.6 -7.5°
